Regional Weather Roundup
Issued by NWS Austin/San Antonio, TX

Home | Current Version | Previous Version | Graphics & Text | Print | Product List | Glossary On
Versions: 1 2 3 4 5 6 7 8 9 10 11 12 13 14 15 16 17 18 19 20 21 22 23 24 25 26 27 28 29 30 31 32 33 34 35 36 37 38 39 40 41 42 43 44 45 46 47 48 49 50
000
ASUS44 KEWX 230410
RWREWX
SOUTH TEXAS REGIONAL WEATHER ROUNDUP
NATIONAL WEATHER SERVICE AUSTIN/SAN ANTONIO TX
1000 PM CST THU FEB 22 2018

NOTE: "FAIR" INDICATED FEW OR NO CLOUDS BELOW 12,000 FEET WITH NO
SIGNIFICANT WEATHER AND/OR OBSTRUCTIONS TO VISIBILITY.

* - THESE STATIONS ARE NOT NWS OR FAA STATIONS...AND ARE NOT SUBJECT
    TO NWS AND FAA QUALITY CONTROL.

TXZ171-172-183>190-230500-
TEXAS HILL COUNTRY AND EDWARDS PLATEAU

CITY           SKY/WX    TMP DP  RH WIND       PRES   REMARKS
JUNCTION       NOT AVBL
*LLANO         MIX PCPN  43  39  87 N3        30.28R
BURNET         LGT RAIN  41  40  96 N5        30.24R WCI  38
*HORSESHOE BAY RAIN      42  42 100 N3        30.24R
*KERRVILLE     CLOUDY    48  46  91 CALM      30.20S FOG
*FREDERICKSBRG CLOUDY    42  41  96 CALM      30.21R FOG
*ROCKSPRINGS   FOG       45  45 100 NE3       30.22R VSB 3/4
*BOERNE STAGE  CLOUDY    46  45  93 CALM      30.22R
*CASTROVILLE   TSTM      50  50 100 E5        30.22S WCI  48
HONDO          LGT RAIN  53  51  93 E7        30.20R FOG
*UVALDE        CLOUDY    52  49  89 CALM      30.21R
DEL RIO        CLOUDY    53  46  77 CALM      30.16S
LAUGHLIN AFB   CLOUDY    55  49  80 CALM      30.17S
CARRIZO SPRGS  CLOUDY    52  50  93 E7        30.17F
*EAGLE PASS    CLOUDY    55  48  76 E9        30.17S
*FAITH RANCH   CLOUDY    54  52  94 E6        30.17S
$$

TXZ173-191>194-202-209-217>225-228-230500-
CENTRAL AND SOUTH CENTRAL TEXAS

CITY           SKY/WX    TMP DP  RH WIND       PRES   REMARKS
GEORGETOWN     LGT RAIN  41  39  93 VRB5      30.26S FOG     WCI  38
AUSTIN/BERGSTM DRZL/FOG  43  43 100 N7        30.26R VSB 1   WCI  39
AUSTIN/MABRY   TSTM      43  42  97 E8        30.22F FOG     WCI  38
*AUSTIN/EXEC   NOT AVBL
*LAGO VISTA    RAIN      41  41 100 NE7       30.22F VSB 3/4 WCI  37
SAN MARCOS     CLOUDY    45  43  93 NE9       30.24F FOG     WCI  40
NEW BRAUNFELS  CLOUDY    44  43  96 NE9       30.21S FOG     WCI  39
RANDOLPH AFB   DRIZZLE   46  45  93 NE7       30.22R FOG     WCI  43
PT SAN ANTONIO LGT RAIN  49  48  97 N5        30.21R WCI  47
SAN ANTONIO    FOG       47  46  97 N5        30.22R VSB 1   WCI  45
STINSON FIELD  CLOUDY    50  48  93 NE5       30.20R FOG     WCI  48
*LA GRANGE     CLOUDY    45  45 100 N5        30.21F FOG     WCI  42
*GIDDINGS      FOG       40  40  99 N3        30.25R VSB 1
*GONZALES      CLOUDY    45  45 100 N8        30.23R FOG     WCI  40
$$

TXZ163>164-176>182-195>201-210>213-226-227-235-230500-
SOUTHEAST TEXAS

CITY           SKY/WX    TMP DP  RH WIND       PRES   REMARKS
COLLEGE STN    CLOUDY    44  44 100 N6        30.24F FOG     WCI  41
*BRYAN         CLOUDY    43  43 100 N6        30.25F FOG     WCI  39
*CALDWELL      CLOUDY    42  42  99 N7        30.24F FOG     WCI  37
*CROCKETT      CLOUDY    46  45  93 NW6       30.28R WCI  43
*BRENHAM       CLOUDY    45  45 100 N5        30.24F FOG     WCI  43
HUNTSVILLE     CLOUDY    49  48  97 NW7       30.23R FOG     WCI  46
CONROE         LGT RAIN  53  53 100 N5        30.22R FOG
HOUSTON BUSH   LGT RAIN  61  60  97 W6        30.21R VSB 3/4
HOUSTON HOBBY  CLOUDY    72  72 100 S7        30.19R
*HOUSTON SW AP CLOUDY    60  60  99 N3        30.21S FOG
PEARLAND       CLOUDY    72  72 100 S9        30.21R
HOUSTON HOOKS  LGT RAIN  55  55 100 NW3       30.22R FOG
ELLINGTON FLD  NOT AVBL
SUGAR LAND     CLOUDY    56  54  93 NW7       30.21S FOG
*HOUSTON EXEC  CLOUDY    50  50 100 N7        30.24S FOG     WCI  47
*CLEVELAND MUN LGT RAIN  62  60  92 N6        30.22R
*WHARTON       FOG       51  51  97 N6        30.22S VSB 1
*COLUMBUS      CLOUDY    47  45  95 N3        30.23S FOG
*EAGLE LAKE    CLOUDY    49  49 100 N8        30.22S FOG     WCI  46
$$

TXZ214>216-236>238-230500-
THE UPPER TEXAS COAST

CITY           SKY/WX    TMP DP  RH WIND       PRES   REMARKS
*ORANGE        CLOUDY    72  72 100 S9        30.24S
PORT ARTHUR    CLOUDY    72  70  93 S12       30.22R
GALVESTON      CLOUDY    70  70 100 SE12      30.21S FOG
ANGLETON       CLOUDY    73  70  90 S10       30.19S
*BAY CITY      FOG       62  62 100 NW3       30.20R VSB 1
PALACIOS       FOG       57  57 100 N8        30.20R VSB 3/4
$$

TXZ229>234-239>247-230500-
TEXAS COASTAL BEND AND RIO GRANDE PLAINS

CITY           SKY/WX    TMP DP  RH WIND       PRES   REMARKS
VICTORIA       CLOUDY    50  49  96 N6        30.21S FOG     WCI  48
*BEEVILLE      CLOUDY    48  48 100 NE6       30.19R FOG     WCI  46
ROCKPORT       CLOUDY    56  55  97 N6        30.18F FOG
*PORT ARANSAS  NOT AVBL
*PORT LAVACA   FOG       52  51  96 N8        30.21R VSB 1
*INGLESIDE     CLOUDY    57  55  95 MISG      30.18S FOG
CORPUS CHRISTI CLOUDY    55  55 100 N7        30.19R FOG
CORPUS NAS     DRIZZLE   58  58 100 N9        30.17S FOG
*ROBSTOWN      FOG       53  53 100 N6        30.19S VSB 1
ALICE          CLOUDY    52  50  93 NW6       30.20R FOG
KINGSVILLE NAS DRZL/FOG  54  54 100 N8        30.19R VSB 1
COTULLA        LGT RAIN  51  50  96 VRB5      30.18F FOG
LAREDO         CLOUDY    53  51  93 N6        30.19R
$$

TXZ248>255-230500-
DEEP SOUTH TEXAS

CITY           SKY/WX    TMP DP  RH WIND       PRES   REMARKS
BROWNSVILLE    CLOUDY    65  65 100 N5        30.16R FOG
PORT ISABEL    FOG       63  61  93 N5        30.15S VSB 3/4
*SOUTH PADRE   NOT AVBL
HARLINGEN      CLOUDY    59  59 100 NW7       30.17R FOG
*HEBBRONVILLE  CLOUDY    53  52  98 E8        30.16F FOG
MCALLEN        CLOUDY    59  57  93 N8        30.19S FOG
*WESLACO       NOT AVBL
FALFURRIAS     CLOUDY    55  53  94 CALM      30.20S
EDINBURG       DRIZZLE   58  56  95 NW6       30.20S
*ZAPATA        CLOUDY    56  56  99 W5        30.16R
$$

TXZ213>215-236>238-242>244-246-247-251-254-255-230500-
CMAN STATIONS

STATION/POSITION TIME  TEMP    WIND        PRES    WAVE
                       AIR SEA DIR/SP/G            HT/PER
                 (UTC) (F)     (DEG/KT/KT) (MB)    (FT/S)
SABINE PASS      0336   68 71  140/ 12/ 13 1025.1
SEA RIM ST PARK  0400   68     140/  8/ 11 1023.9
NORTH JETTY/GLS  0336      65  140/ 12/ 14 1022.7
EAGLE POINT      0336   70 71  170/ 13/ 15 1022.9
MORGANS POINT    0336   69 65  150/  4/  7 1022.7
PORT O`CONNOR    0348   59 63  350/  8/  9 1022.3
MALAQUITE BEACH  0348   87 62  360/  7/  9 1021.4
BAFFIN BAY       0348   59 65   20/  9/ 11 1021.8
PORT ISABEL      0342   62 66   30/  5/  7 1021.1
$$



USA.gov is the U.S. government's official web portal to all federal, state and local government web resources and services.